TimeEST,TemperatureF,Dew PointF,Humidity,Sea Level PressureIn,VisibilityMPH,Wind Direction,Wind SpeedMPH,Gust SpeedMPH,PrecipitationIn,Events,Conditions,WindDirDegrees,DateUTC
12:51 AM,12.0,1.9,64,30.30,9.0,SW,12.7,-,0.00,Snow,Light Snow,230,2013-02-02 05:51:00
1:51 AM,12.0,3.0,67,30.28,8.0,WSW,10.4,-,0.00,Snow,Light Snow,240,2013-02-02 06:51:00
2:51 AM,12.0,1.9,64,30.28,9.0,WSW,9.2,-,0.00,Snow,Light Snow,240,2013-02-02 07:51:00
3:51 AM,12.0,1.9,64,30.26,9.0,WSW,9.2,-,0.00,Snow,Light Snow,250,2013-02-02 08:51:00
4:15 AM,10.4,1.4,67,30.18,9.0,SW,12.7,-,0.00,,Scattered Clouds,230,2013-02-02 09:15:00
4:51 AM,10.0,1.0,67,30.24,10.0,SSW,4.6,-,0.00,,Scattered Clouds,200,2013-02-02 09:51:00
5:51 AM,10.9,3.0,70,30.23,10.0,SSW,8.1,-,N/A,,Overcast,200,2013-02-02 10:51:00
6:51 AM,10.9,3.0,70,30.22,10.0,SSW,8.1,-,0.00,Snow,Light Snow,200,2013-02-02 11:51:00
7:51 AM,12.0,3.9,70,30.20,7.0,SSW,9.2,-,0.00,Snow,Light Snow,210,2013-02-02 12:51:00
8:16 AM,10.4,5.0,79,30.12,2.0,SSW,9.2,-,0.00,Snow,Light Snow,200,2013-02-02 13:16:00
8:23 AM,10.4,5.0,79,30.12,1.0,SSW,9.2,16.1,0.00,Snow,Light Snow,200,2013-02-02 13:23:00
8:51 AM,12.0,6.1,77,30.18,1.0,South,9.2,-,0.00,Snow,Light Snow,180,2013-02-02 13:51:00
9:51 AM,12.9,8.1,81,30.17,1.0,South,9.2,-,0.01,Snow,Light Snow,190,2013-02-02 14:51:00
10:16 AM,12.2,8.6,85,30.07,0.8,South,10.4,-,0.00,Snow,Light Snow,190,2013-02-02 15:16:00
10:51 AM,14.0,8.1,77,30.13,0.8,South,6.9,-,0.01,Snow,Light Snow,190,2013-02-02 15:51:00
11:33 AM,14.0,10.4,86,30.04,0.2,South,8.1,-,0.03,Snow,Heavy Snow,180,2013-02-02 16:33:00
11:51 AM,15.1,10.0,80,30.10,0.2,South,9.2,-,0.03,Snow,Heavy Snow,170,2013-02-02 16:51:00
12:14 PM,15.8,10.4,79,30.01,0.5,South,8.1,-,0.02,Snow,Snow,180,2013-02-02 17:14:00
12:51 PM,17.1,12.0,81,30.05,0.5,South,6.9,-,0.03,Snow,Snow,180,2013-02-02 17:51:00
1:25 PM,17.6,12.2,79,29.97,0.8,SSW,8.1,-,0.00,Snow,Light Snow,200,2013-02-02 18:25:00
1:51 PM,19.0,12.9,77,30.01,0.8,SSW,11.5,18.4,0.01,Snow,Light Snow,200,2013-02-02 18:51:00
2:51 PM,19.9,15.1,81,30.00,0.8,SSW,8.1,-,0.02,Snow,Light Snow,200,2013-02-02 19:51:00
3:39 PM,19.4,15.8,86,29.93,0.5,SSW,5.8,-,0.01,Snow,Snow,210,2013-02-02 20:39:00
3:51 PM,19.9,16.0,85,30.00,0.5,SSW,6.9,-,0.01,Snow,Snow,200,2013-02-02 20:51:00
4:39 PM,21.2,17.6,86,29.93,0.8,SSW,4.6,-,0.02,Snow,Light Snow,200,2013-02-02 21:39:00
4:51 PM,21.0,17.1,85,29.99,0.8,SSW,3.5,-,0.02,Snow,Light Snow,210,2013-02-02 21:51:00
5:51 PM,21.0,17.1,85,30.00,1.5,SSW,4.6,-,0.01,Snow,Light Snow,210,2013-02-02 22:51:00
6:16 PM,21.2,17.6,86,29.93,1.5,SSW,4.6,-,N/A,Snow,Light Snow,200,2013-02-02 23:16:00
6:51 PM,21.0,17.1,85,30.00,1.5,SSW,4.6,-,0.00,Snow,Light Snow,200,2013-02-02 23:51:00
7:00 PM,21.2,17.6,86,29.93,5.0,Calm,Calm,-,0.00,Snow,Light Snow,0,2013-02-03 00:00:00
7:51 PM,21.2,17.6,86,29.94,4.0,SSW,3.5,-,N/A,Snow,Light Snow,200,2013-02-03 00:51:00
8:51 PM,19.9,17.1,89,30.00,4.0,SSW,3.5,-,0.00,Snow,Light Snow,210,2013-02-03 01:51:00
9:51 PM,21.0,18.0,88,29.99,3.0,SSW,3.5,-,0.00,Snow,Light Snow,210,2013-02-03 02:51:00
10:51 PM,21.0,18.0,88,29.98,4.0,SW,4.6,-,0.00,Snow,Light Snow,220,2013-02-03 03:51:00
11:51 PM,19.9,17.1,89,29.98,4.0,WSW,4.6,-,0.00,Snow,Light Snow,240,2013-02-03 04:51:00